sat.trackr.live / text

‹ back to catalog

TIANPING-3A 02

NORAD 63432 · 2025-068A

PAYLOAD ACTIVE UNKNOWN

§ Identity

Operator
Country
PRC
Launch date
2025-04-03
Launch site
TAISC
Launch vehicle
Mass (kg)
RCS (m²)

External: N2YO · Heavens-Above · Gunter

§ Orbital elements

Epoch: 2026-09-21T23:07:41.989152Z

Period
96.99 min
Inclination
42.9996°
Eccentricity
0.0235879
Mean motion
14.84757991 rev/d
Perigee alt
449.4 km
Apogee alt
779.3 km
Semi-major
6,992.5 km
B*
1.2434e-4
RAAN
255.0888°
Arg perigee
105.3083°
Mean anomaly
257.3952°
Rev number
7,976

§ Raw data

TIANPING-3A 021 63432U 25068A   26264.96368043  .00001514  00000+0  12434-3 0  99952 63432  42.9996 255.0888 0235879 105.3083 257.3952 14.84757991 79766

JSON: /api/v1/satellites/63432 · /tle

For live sub-satellite position, see the globe view (requires WebGL).

§ Visibility from observer

Set your observer location to see the next 7 days of passes ≥ 10°. The values pass through the URL so the page stays shareable.

No JS? Fill the form by hand. The geolocation button needs JavaScript.